Barrow, AK

5:14 AM AKDT on October 23, 2019 (GMT -0800)
Wiley Post-Will Rogers Memorial

Weather History for PABR - May, 2019

Change the Weather History Date:

Saturday, May 18, 2019

  Actual Average Record
Temperature  
Mean Temperature 30 °F 22 °F  
Max Temperature 33 °F 27 °F 41 °F (2015)
Min Temperature 28 °F 18 °F -2 °F (1928)
Degree Days  
Heating Degree Days 34 43  
Month to date heating degree days 719 856  
Since 1 July heating degree days 15747 18016  
Cooling Degree Days 0 0  
Month to date cooling degree days 0 0  
Year to date cooling degree days 0 0  
Moisture  
Dew Point 28 °F    
Average Humidity 91    
Maximum Humidity 96    
Minimum Humidity 85    
Precipitation  
Precipitation T in 0.01 in 0.07 in (1949)
Month to date precipitation 0.03 0.09  
Year to date precipitation 1.20 0.61  
Snow  
Snow T in 0.00 in 1.00 in (1996)
Month to date snowfall 0.1 1.6  
Since 1 July snowfall 43.6 35.9  
Snow Depth 6.00 in    
Sea Level Pressure  
Sea Level Pressure 29.89 in    
Wind  
Wind Speed 22 mph ()    
Max Wind Speed 29 mph    
Max Gust Speed 33 mph    
Visibility 4.4 miles    
Events Fog , Snow    
T = Trace of Precipitation, MM = Missing Value Source: Averaged Metar Reports

Daily Weather History Graph

Daily Weather History Graph

Search for Another Location

Airport or City:

Astronomy

May. 18, 2019 Rise Set
Actual Time 2:55 AM AKDT Sun does not rise
Civil Twilight Sun does not rise Sun does not rise
Nautical Twilight Sun does not rise Sun does not rise
Astronomical Twilight Sun does not rise Sun does not rise
Moon No Moon Rise 4:48 AM AKDT (5/18)
Length of Visible Light 24h 00m
Length of Day
24h 00m
Full, 100% of the Moon is Illuminated
May 18
Full
May 18
Full
May 26
Last Quarter
Jun 3
New
Jun 9
First Quarter

Hourly Weather History & Observations

Time (AKDT) Temp. Windchill Dew Point Humidity Pressure Visibility Wind Dir Wind Speed Gust Speed Precip Events Conditions
12:31 AM 30.9 °F 16.4 °F 27.0 °F 85% 29.86 in 4.0 mi East 28.8 mph - N/A   Overcast
12:39 AM 30.0 °F 15.2 °F 27.0 °F 88% 29.86 in 2.0 mi East 28.8 mph - 0.00 in Snow Light Snow
12:53 AM 30.0 °F 15.2 °F 28.0 °F 92% 29.87 in 0.8 mi East 28.8 mph 33.4 mph 0.00 in Snow Light Snow
1:07 AM 30.0 °F 16.3 °F 28.0 °F 92% 29.86 in 0.8 mi East 24.2 mph - 0.00 in Snow Light Snow
1:12 AM 30.0 °F 16.0 °F 28.0 °F 92% 29.86 in 0.8 mi East 25.3 mph - 0.00 in Snow Light Snow
1:20 AM 30.0 °F 15.7 °F 28.0 °F 92% 29.86 in 1.0 mi East 26.5 mph 32.2 mph 0.00 in Snow Light Snow
1:53 AM 30.0 °F 16.0 °F 28.0 °F 92% 29.87 in 2.0 mi East 25.3 mph - 0.00 in Snow Light Snow
2:06 AM 30.0 °F 16.3 °F 28.0 °F 92% 29.86 in 3.0 mi East 24.2 mph - 0.00 in Snow Light Snow
2:24 AM 30.0 °F 16.3 °F 27.0 °F 88% 29.86 in 6.0 mi East 24.2 mph - 0.00 in   Overcast
2:53 AM 30.0 °F 16.3 °F 27.0 °F 88% 29.87 in 5.0 mi East 24.2 mph - 0.00 in Snow Light Snow
3:53 AM 30.0 °F 17.2 °F 27.0 °F 88% 29.88 in 4.0 mi East 20.7 mph - 0.00 in   Overcast
4:50 AM 30.2 °F 17.4 °F 26.6 °F 86% 29.87 in 4.0 mi East 20.7 mph - 0.00 in   Overcast
4:53 AM 30.0 °F 17.5 °F 27.0 °F 88% 29.87 in 3.0 mi East 19.6 mph - 0.00 in Snow Light Snow
4:55 AM 30.0 °F 17.2 °F 27.0 °F 88% 29.87 in 2.5 mi East 20.7 mph - 0.00 in Snow Light Snow
5:05 AM 28.9 °F 15.1 °F 27.0 °F 92% 29.87 in 4.0 mi East 23.0 mph - 0.00 in Snow Light Snow
5:12 AM 28.9 °F 16.1 °F 27.0 °F 92% 29.87 in 2.5 mi East 19.6 mph - 0.00 in Snow Light Snow
5:17 AM 28.9 °F 16.1 °F 27.0 °F 92% 29.87 in 2.5 mi East 19.6 mph - 0.00 in Snow Light Snow
5:21 AM 28.9 °F 14.5 °F 27.0 °F 92% 29.87 in 4.0 mi East 25.3 mph - 0.00 in Snow Light Snow
5:53 AM 28.9 °F 16.1 °F 27.0 °F 92% 29.88 in 6.0 mi East 19.6 mph - 0.00 in   Overcast
6:53 AM 30.0 °F 16.6 °F 26.1 °F 85% 29.88 in 10.0 mi East 23.0 mph - 0.00 in   Overcast
7:53 AM 30.0 °F 16.9 °F 27.0 °F 88% 29.87 in 10.0 mi East 21.9 mph - N/A   Overcast
8:53 AM 30.0 °F 16.3 °F 27.0 °F 88% 29.86 in 10.0 mi East 24.2 mph - N/A   Overcast
9:53 AM 30.0 °F 16.0 °F 27.0 °F 88% 29.87 in 10.0 mi East 25.3 mph 31.1 mph N/A   Overcast
10:53 AM 30.0 °F 16.3 °F 27.0 °F 88% 29.88 in 10.0 mi East 24.2 mph - N/A   Overcast
11:53 AM 30.0 °F 16.6 °F 27.0 °F 88% 29.88 in 10.0 mi East 23.0 mph 29.9 mph N/A   Overcast
12:53 PM 30.9 °F 17.2 °F 27.0 °F 85% 29.88 in 10.0 mi East 25.3 mph - N/A   Overcast
1:53 PM 30.9 °F 17.8 °F 28.0 °F 89% 29.89 in 4.0 mi East 23.0 mph - 0.00 in Snow Light Snow
2:53 PM 30.9 °F 18.1 °F 28.0 °F 89% 29.88 in 10.0 mi East 21.9 mph - 0.00 in   Overcast
3:53 PM 32.0 °F 19.5 °F 28.9 °F 88% 29.89 in 10.0 mi East 21.9 mph - N/A   Overcast
4:53 PM 32.0 °F 19.5 °F 28.9 °F 88% 29.89 in 10.0 mi East 21.9 mph - N/A   Overcast
5:53 PM 33.1 °F 20.9 °F 30.0 °F 89% 29.89 in 10.0 mi ESE 21.9 mph - N/A   Overcast
6:51 PM 32.0 °F 19.2 °F 30.2 °F 93% 29.89 in 10.0 mi ESE 23.0 mph - N/A   Overcast
6:53 PM 32.0 °F 19.2 °F 30.0 °F 92% 29.89 in 10.0 mi ESE 23.0 mph - N/A   Overcast
7:53 PM 32.0 °F 19.8 °F 30.0 °F 92% 29.90 in 9.0 mi ESE 20.7 mph 27.6 mph N/A   Overcast
8:53 PM 32.0 °F 18.4 °F 30.0 °F 92% 29.91 in 2.5 mi ESE 26.5 mph 31.1 mph N/A   Overcast
9:00 PM 32.0 °F 19.2 °F 30.0 °F 92% 29.91 in 7.0 mi ESE 23.0 mph - N/A   Overcast
9:14 PM 30.9 °F 17.8 °F 30.0 °F 96% 29.90 in 1.8 mi ESE 23.0 mph - N/A   Overcast
9:21 PM 32.0 °F 18.6 °F 30.0 °F 92% 29.91 in 0.5 mi ESE 25.3 mph 29.9 mph N/A Fog Fog
9:27 PM 30.9 °F 18.1 °F 30.0 °F 96% 29.90 in 1.0 mi ESE 21.9 mph 29.9 mph N/A   Overcast
9:42 PM 30.9 °F 18.1 °F 30.0 °F 96% 29.91 in 0.5 mi ESE 21.9 mph - N/A Fog Light Freezing Fog
9:53 PM 30.9 °F 18.4 °F 30.0 °F 96% 29.92 in 0.5 mi ESE 20.7 mph - N/A Fog Light Freezing Fog
10:01 PM 30.9 °F 18.4 °F 30.0 °F 96% 29.91 in 0.8 mi ESE 20.7 mph - N/A   Mist
10:19 PM 30.9 °F 18.7 °F 30.0 °F 96% 29.92 in 0.5 mi East 19.6 mph - N/A Fog Light Freezing Fog
10:42 PM 30.9 °F 18.1 °F 30.0 °F 96% 29.92 in 1.0 mi ESE 21.9 mph - N/A   Mist
10:53 PM 30.9 °F 17.8 °F 30.0 °F 96% 29.93 in 1.8 mi ESE 23.0 mph - N/A   Overcast
11:11 PM 30.9 °F 18.1 °F 28.9 °F 92% 29.93 in 0.8 mi ESE 21.9 mph - N/A   Overcast
11:22 PM 30.9 °F 18.1 °F 30.0 °F 96% 29.93 in 0.5 mi ESE 21.9 mph - N/A Fog Light Freezing Fog
11:31 PM 30.2 °F 16.8 °F 28.4 °F 93% 29.93 in 1.0 mi ESE 23.0 mph - N/A   Overcast
11:44 PM 30.9 °F 18.7 °F 30.0 °F 96% 29.94 in 0.5 mi ESE 19.6 mph - N/A Fog Light Freezing Fog
11:53 PM 30.9 °F 18.7 °F 28.9 °F 92% 29.94 in 0.5 mi ESE 19.6 mph - N/A Fog Light Freezing Fog